Tracking 27405 objects as of 1-Jun-2023
HD Live streaming from Space Station
objects crossing your sky now

COSMOS 1375 DEB

Track COSMOS 1375 DEB now!
10-day predictions


NORAD ID: 17804
Int'l Code: 1982-055AW
Perigee: 899.2 km
Apogee: 914.6 km
Inclination: 65.8 °
Period: 103.0 minutes
Semi major axis: 7277 km
RCS: 0.0158 m2 (small)
Launch date: June 6, 1982
Source: Commonwealth of Independent States (former USSR) (CIS)
Launch site: PLESETSK MISSILE AND SPACE COMPLEX (PKMTR)

Note: This is SATELLITE DEBRIS
Your satellite tracking list
Your tracking list is empty




NASA's NSSDC Master Catalog

Two Line Element Set (TLE):
1 17804U 82055AW  23151.91205632  .00001377  00000-0  10235-2 0  9991
2 17804  65.8187 349.0774 0010548  15.8948 101.7809 13.98272661901599
Source of the keplerian elements: AFSPC